Hourly Weather Pticefabrika

Today, 12 May, Wednesday

Time Temperature Precipitation Wind Pressure Humidity
00:00 +11°C° 0 mm 4 mps 748 mmHg 80%
01:00 +11°C° 0 mm 4 mps 748 mmHg 84%
02:00 +11°C° 0 mm 3 mps 748 mmHg 87%
03:00 +11°C° 0 mm 4 mps 748 mmHg 88%
04:00 +11°C° 0 mm 4 mps 748 mmHg 88%
05:00 +11°C° 0 mm 4 mps 748 mmHg 89%
06:00 +12°C° 0 mm 4 mps 748 mmHg 85%
07:00 +14°C° 0 mm 5 mps 747 mmHg 81%
08:00 +16°C° 0 mm 6 mps 747 mmHg 77%
09:00 +17°C° 0 mm 6 mps 747 mmHg 73%
10:00 +18°C° 0 mm 7 mps 747 mmHg 69%
11:00 +20°C° 0 mm 8 mps 747 mmHg 65%
12:00 +20°C° 0 mm 8 mps 747 mmHg 59%
13:00 +20°C° 0 mm 7 mps 747 mmHg 54%
14:00 +20°C° 0 mm 7 mps 747 mmHg 49%
15:00 +18°C° 0 mm 7 mps 747 mmHg 51%
16:00 +19°C° 0 mm 6 mps 746 mmHg 53%
17:00 +19°C° 0 mm 6 mps 746 mmHg 55%
18:00 +16°C° 0 mm 5 mps 746 mmHg 60%
19:00 +14°C° 0 mm 5 mps 746 mmHg 66%
20:00 +12°C° 0 mm 4 mps 746 mmHg 71%
21:00 +11°C° 0 mm 4 mps 746 mmHg 73%
22:00 +10°C° 0 mm 3 mps 745 mmHg 76%
23:00 +9°C° 0 mm 3 mps 745 mmHg 79%

Tomorrow, 13 May, Thursday

Time Temperature Precipitation Wind Pressure Humidity
00:00 +8°C° 0 mm 3 mps 745 mmHg 81%
01:00 +7°C° 0 mm 2 mps 744 mmHg 83%
02:00 +7°C° 0 mm 2 mps 744 mmHg 85%
03:00 +6°C° 0 mm 2 mps 744 mmHg 86%
04:00 +6°C° 0 mm 2 mps 743 mmHg 86%
05:00 +6°C° 0 mm 2 mps 743 mmHg 87%
06:00 +8°C° 0 mm 3 mps 742 mmHg 80%
07:00 +9°C° 0 mm 3 mps 742 mmHg 74%
08:00 +11°C° 0 mm 4 mps 742 mmHg 68%
09:00 +12°C° 0 mm 4 mps 741 mmHg 63%
10:00 +13°C° 0 mm 5 mps 741 mmHg 58%
11:00 +15°C° 0 mm 5 mps 740 mmHg 54%
12:00 +15°C° 0 mm 5 mps 740 mmHg 52%
13:00 +16°C° 0 mm 5 mps 739 mmHg 51%
14:00 +18°C° 0 mm 4 mps 739 mmHg 49%
15:00 +16°C° 0 mm 5 mps 739 mmHg 57%
16:00 +15°C° 0 mm 5 mps 739 mmHg 64%
17:00 +14°C° 0 mm 5 mps 739 mmHg 72%
18:00 +14°C° 0.1 mm 5 mps 738 mmHg 76%
19:00 +13°C° 0.1 mm 5 mps 738 mmHg 81%
20:00 +12°C° 0.1 mm 4 mps 738 mmHg 86%
21:00 +12°C° 0.3 mm 4 mps 738 mmHg 89%
22:00 +11°C° 0.3 mm 4 mps 738 mmHg 92%
23:00 +11°C° 0.3 mm 4 mps 738 mmHg 95%

Day after tomorrow, 14 May, Friday

Time Temperature Precipitation Wind Pressure Humidity
00:00 +11°C° 0 mm 4 mps 738 mmHg 96%
01:00 +11°C° 0 mm 4 mps 738 mmHg 96%
02:00 +11°C° 0 mm 4 mps 738 mmHg 97%
03:00 +12°C° 0.1 mm 4 mps 738 mmHg 97%
04:00 +12°C° 0.1 mm 4 mps 738 mmHg 97%
05:00 +12°C° 0.1 mm 4 mps 738 mmHg 97%
06:00 +12°C° 0.3 mm 4 mps 738 mmHg 96%
07:00 +12°C° 0.3 mm 4 mps 738 mmHg 95%
08:00 +12°C° 0.3 mm 4 mps 739 mmHg 95%
09:00 +12°C° 0.1 mm 4 mps 739 mmHg 91%
10:00 +13°C° 0.1 mm 4 mps 739 mmHg 88%
11:00 +13°C° 0.1 mm 4 mps 740 mmHg 85%
12:00 +14°C° 0.1 mm 5 mps 740 mmHg 81%
13:00 +14°C° 0.1 mm 5 mps 740 mmHg 77%
14:00 +15°C° 0.1 mm 6 mps 740 mmHg 73%
15:00 +14°C° 0 mm 6 mps 741 mmHg 77%
16:00 +13°C° 0 mm 6 mps 741 mmHg 80%
17:00 +12°C° 0 mm 5 mps 741 mmHg 84%
18:00 +10°C° 0 mm 5 mps 741 mmHg 85%
19:00 +10°C° 0 mm 5 mps 742 mmHg 87%
20:00 +10°C° 0 mm 4 mps 742 mmHg 88%
21:00 +10°C° 0 mm 4 mps 742 mmHg 88%
22:00 +10°C° 0 mm 4 mps 742 mmHg 89%
23:00 +10°C° 0 mm 4 mps 742 mmHg 89%

15 May, Saturday

Time Temperature Precipitation Wind Pressure Humidity
00:00 +10°C° 0 mm 4 mps 742 mmHg 89%
01:00 +10°C° 0 mm 4 mps 742 mmHg 89%
02:00 +10°C° 0 mm 4 mps 743 mmHg 89%
03:00 +8°C° 0 mm 4 mps 743 mmHg 90%
04:00 +7°C° 0 mm 4 mps 743 mmHg 91%
05:00 +6°C° 0 mm 4 mps 743 mmHg 93%
06:00 +8°C° 0 mm 4 mps 743 mmHg 86%
07:00 +10°C° 0 mm 4 mps 743 mmHg 79%
08:00 +12°C° 0 mm 5 mps 744 mmHg 72%
09:00 +13°C° 0 mm 4 mps 744 mmHg 68%
10:00 +15°C° 0 mm 4 mps 744 mmHg 65%
11:00 +17°C° 0 mm 4 mps 744 mmHg 61%
12:00 +17°C° 0 mm 4 mps 744 mmHg 60%
13:00 +18°C° 0 mm 3 mps 744 mmHg 60%
14:00 +18°C° 0 mm 3 mps 744 mmHg 59%
15:00 +18°C° 0.1 mm 2 mps 744 mmHg 60%
16:00 +18°C° 0.1 mm 2 mps 744 mmHg 61%
17:00 +19°C° 0.1 mm 1 mps 743 mmHg 61%
18:00 +18°C° 0.1 mm 1 mps 744 mmHg 67%
19:00 +16°C° 0.1 mm 1 mps 744 mmHg 72%
20:00 +15°C° 0.1 mm 1 mps 744 mmHg 77%
21:00 +14°C° 0 mm 1 mps 744 mmHg 79%
22:00 +14°C° 0 mm 1 mps 744 mmHg 81%
23:00 +13°C° 0 mm 2 mps 744 mmHg 83%

16 May, Sunday

Time Temperature Precipitation Wind Pressure Humidity
00:00 +13°C° 0.1 mm 2 mps 744 mmHg 83%
01:00 +13°C° 0.1 mm 1 mps 744 mmHg 84%
02:00 +13°C° 0.1 mm 1 mps 744 mmHg 85%
03:00 +13°C° 0 mm 1 mps 744 mmHg 85%
04:00 +13°C° 0 mm 2 mps 744 mmHg 85%
05:00 +13°C° 0 mm 2 mps 744 mmHg 85%
06:00 +14°C° 0 mm 2 mps 744 mmHg 82%
07:00 +14°C° 0 mm 3 mps 744 mmHg 79%
08:00 +16°C° 0 mm 3 mps 745 mmHg 77%
09:00 +17°C° 0 mm 4 mps 745 mmHg 71%
10:00 +19°C° 0 mm 5 mps 745 mmHg 65%
11:00 +20°C° 0 mm 5 mps 745 mmHg 59%
12:00 +20°C° 0.6 mm 5 mps 744 mmHg 62%
13:00 +19°C° 0.6 mm 5 mps 744 mmHg 66%
14:00 +19°C° 0.6 mm 4 mps 744 mmHg 69%
15:00 +18°C° 1.1 mm 4 mps 744 mmHg 74%
16:00 +17°C° 1.1 mm 3 mps 744 mmHg 80%
17:00 +16°C° 1.1 mm 3 mps 744 mmHg 85%
18:00 +16°C° 0.4 mm 3 mps 743 mmHg 87%
19:00 +14°C° 0.4 mm 3 mps 743 mmHg 89%
20:00 +15°C° 0.4 mm 2 mps 743 mmHg 90%
21:00 +14°C° 0.1 mm 3 mps 743 mmHg 91%
22:00 +14°C° 0.1 mm 3 mps 743 mmHg 91%
23:00 +13°C° 0.1 mm 3 mps 743 mmHg 91%

17 May, Monday

Time Temperature Precipitation Wind Pressure Humidity
00:00 +13°C° 0.1 mm 3 mps 742 mmHg 92%
01:00 +13°C° 0.1 mm 3 mps 742 mmHg 94%
02:00 +13°C° 0.1 mm 3 mps 742 mmHg 95%
03:00 +14°C° 0 mm 2 mps 742 mmHg 95%
04:00 +14°C° 0 mm 2 mps 741 mmHg 94%
05:00 +13°C° 0 mm 2 mps 741 mmHg 94%
06:00 +14°C° 0.4 mm 2 mps 741 mmHg 94%
07:00 +14°C° 0.4 mm 2 mps 741 mmHg 93%
08:00 +14°C° 0.4 mm 2 mps 741 mmHg 93%
09:00 +15°C° 0.4 mm 2 mps 741 mmHg 89%
10:00 +16°C° 0.4 mm 2 mps 741 mmHg 85%
11:00 +16°C° 0.4 mm 1 mps 741 mmHg 80%
12:00 +18°C° 0.1 mm 1 mps 741 mmHg 81%
13:00 +17°C° 0.1 mm 2 mps 741 mmHg 82%
14:00 +17°C° 0.1 mm 2 mps 741 mmHg 82%
15:00 +17°C° 0.2 mm 2 mps 741 mmHg 83%
16:00 +17°C° 0.2 mm 3 mps 741 mmHg 84%
17:00 +16°C° 0.2 mm 3 mps 741 mmHg 85%
18:00 +16°C° 0.1 mm 3 mps 741 mmHg 88%
19:00 +14°C° 0.1 mm 3 mps 742 mmHg 91%
20:00 +14°C° 0.1 mm 2 mps 742 mmHg 94%
21:00 +14°C° 0 mm 2 mps 742 mmHg 94%
22:00 +14°C° 0 mm 2 mps 742 mmHg 94%
23:00 +13°C° 0 mm 2 mps 742 mmHg 94%
Show more

We Need Your Consent

Meteoprog and our Service Providers may store and access personal data such as cookies, device identifiers or other similar technologies on your device and process such data to personalise content and ads, as well as provide social media features and to analyse the traffic.

  • Store and/or access information on your device

    Cookies, device identifiers or other information can be stored or accessed on your device for the purposes indicated above.

  • Personalised ads and content, ad and content measurement, audience insights, and products development

    Ads and content can be personalised based on a profile. More data can be added to better personalise ads and content. Ad and content performance can be measured. Insights about the audience who saw the ads and content can be derived. Such data can be used to develop or improve user’s experience, systems and software.

By clicking ‘I Agree’ you will allow the use of indicated cookies, device identifiers, web beacons or other similar technologies. Your settings can be changed in the browser on your device.

For certain purposes, legitimate interests may be relied on, rather than consent. You can read more about this in our Privacy and Cookie Policy.